THORAD AGENA D DEB, 42495

Orbit data source: Space-Track

THORAD AGENA D DEB, 42495 is space debris in SSO originally from a launch on Wed, 08 Apr 1970 UTC launched from the Air Force Western Test Range (AFWTR). Debris objects in space refer to the collection of defunct objects orbiting the Earth. Examples of debris include non-operational satellites, rocket bodies, and fragments generated from explosions, collisions, or faulty payload assembly.

Loading next visibility...
Identifier
42495, 1970-025QZ
Orbit
SSO
Country
Flag of USUS
Related business
Manufacturer
Unknown
Mission
Spacecraft
Bus & Motor
Unknown
Mass
Unknown
Launch date (UTC)
1970-04-08 (56 years ago)
Launch vehicle
Unknown
Launch site
Air Force Western Test Range (AFWTR)
Object type
Payload
Rocket body
Debris
Shape & HBR
Unknown shape, 0.1 m
Radar Cross Section
Small (<0.1 m²)

Expand to show TLE details & history
Last TLE update: 5 days ago

TLE from 5 days ago
0 THORAD AGENA D DEB
1 42495U 70025QZ  26252.44051268  .00000110  00000-0  22034-3 0  9991
2 42495  99.9598 322.7609 0026230 283.0081  76.8127 13.56629956633239
Epoch: 2026-09-09T10:34Z
TLE epoch observation values (Epoch: 2026-09-09T10:34:20.295Z)
Latitude
-0.00011°
Longitude
175.68382°
Altitude
1,046.354 km
Speed
7.331 km/s
True Right ascension
21h 31m 02s
True Declination
0° 00' 00"
Sunlit
Object was in full shadow at epoch
Visualization orbit readout
Latitude
Unknown
Longitude
Unknown
Altitude
Unknown
Speed
Unknown
Apparent Right ascension
Unknown
Apparent Declination
Unknown
Sunlit
N/A
Visualization observer readout
Local Sidereal Time
01:14:02
Azimuth
Unknown
Elevation
Unknown
Doppler factor
Unknown
Orbital elements
Apogee altitude
1,064.743 km
Perigee altitude
1,025.799 km
Semi-major axis
7,423.408 km
Eccentricity
0.00262
Inclination
99.9598°
RAAN
322.7609°
Arg. of periapsis
283.0081°
True anomaly
77.10557°
Mean anomaly
76.8127°
Eccentric anomaly
76.95911°
Mean motion
3.39342 °/min
Orbital period
106.09 mins
BSTAR
0.00022034
Loading maneuver chart data...
Computing Atmospheric mass density...

Documentation

Showing up to 5 results
|